Zurück zum Katalog

COSMOS 1159

AktivMilitärLEO
NORAD 11694·PAYLOAD·🇷🇺 Russia

Gestartet Feb 11, 1980 von Plesetsk Cosmodrome

Loading…

Nächste Überflüge (nächste 24 Stunden)

TLE

AktuellSource: Space-Track

Epoche: Sep 14, 2026, 13:42 UTC

1 11694U 80012D   26257.57112453 -.00000007  00000-0  55281-4 0  9995
2 11694  74.0215 197.3987 0017632 141.9119 329.5812 12.50128563126148

Verfolge COSMOS 1159 in Echtzeit mit AllMySat

Download on the App Store